Flag for Canada Weather past 2 weeks in Grande Prairie, Alberta, Canada

Now
52 °F

Clear.


Feels Like: 46 °F
Forecast: 46 / 71 °F
Wind: 20 mph from Southwest

Location: Grande Prairie

Current Time: Sep 20, 2014 at 12:14:36 AM

Latest Report: Sep 19, 2014 at 11:00 PM


Visibility: 25 mi

Pressure: 29.94 "Hg

Humidity: 58%

Dew point: 37 °F

Location of Grande PrairieLocation

Historic Weather in Grande Prairie — Graph

°F

Grande Prairie temperature yesterday

Maximum temperature yesterday: 66 °F (at 1:00 PM)
Minimum temperature yesterday: 43 °F (at 4:00 AM)
Average temperature yesterday: 55 °F

Past Weeks' High & Low Weather Summary

 TemperatureHumidityPressure
High79 °F (Sep 6, 2:00 PM)100% (Sep 8, 12:00 AM)30.71 "Hg (Sep 8, 12:00 AM)
Low21 °F (Sep 11, 7:00 AM)21% (Sep 6, 4:00 PM)29.55 "Hg (Sep 18, 4:00 PM)
Average50 °F68%30.07 "Hg
* Reported Sep 4 11:00 PM — Sep 19 11:00 PM, Grande Prairie, Weather by CustomWeather, © 2014

Note: Actual official high and low records may vary slightly from our data, if they occured in-between our weather recording intervals... More about our weather records

Advertising

Grande Prairie weather history for previous 24 hours

 ConditionsComfort  
Time TempWeatherWind HumidityBarometerVisibility
11:00 PM
Sep 19
52 °FClear.20 mph58%29.94 "Hg25 mi
10:00 PM54 °FPassing clouds.24 mph54%29.92 "Hg25 mi
9:00 PM55 °FPassing clouds.23 mph51%29.90 "Hg25 mi
8:00 PM57 °FPassing clouds.25 mph44%29.86 "Hg25 mi
7:00 PM59 °FScattered clouds.25 mph42%29.85 "Hg25 mi
6:00 PM64 °FScattered clouds.30 mph32%29.83 "Hg25 mi
5:00 PM66 °FBroken clouds.36 mph28%29.79 "Hg25 mi
4:00 PM66 °FPassing clouds.33 mph28%29.77 "Hg25 mi
3:00 PM66 °FPassing clouds.36 mph30%29.75 "Hg25 mi
2:00 PM66 °FPassing clouds.41 mph28%29.72 "Hg25 mi
1:00 PM66 °FPassing clouds.40 mph30%29.70 "Hg25 mi
12:00 PM64 °FPassing clouds.31 mph32%29.70 "Hg25 mi
11:00 AM63 °FScattered clouds.31 mph34%29.68 "Hg25 mi
10:00 AM59 °FBroken clouds.26 mph48%29.67 "Hg25 mi
9:00 AM55 °FPartly sunny.13 mph67%29.64 "Hg25 mi
8:00 AM48 °FPartly cloudy.9 mph82%29.64 "Hg25 mi
7:00 AM46 °FPassing clouds.10 mph93%29.62 "Hg25 mi
6:00 AM43 °FPassing clouds.6 mph100%29.62 "Hg25 mi
5:00 AM45 °FPassing clouds.7 mph93%29.61 "Hg25 mi
4:00 AM43 °FPassing clouds.3 mph93%29.61 "Hg25 mi
3:00 AM45 °FPassing clouds.5 mph100%29.60 "Hg25 mi
2:00 AM48 °FPassing clouds.8 mph94%29.60 "Hg25 mi
1:00 AM46 °FPassing clouds.6 mph100%29.59 "Hg25 mi
12:00 AM48 °FPassing clouds.9 mph87%29.59 "Hg25 mi
Weather by CustomWeather, © 2014

See weather overviewHow to use our weather pages